Weather reports worldwide

Advertisment
Ronchi Dei Legionari, Italy (16108): temperature & dewpoint: 16.08.2019 20:00:00 - 22.08.2019 20:00:00 (CEST)Ronchi Dei Legionari, Italy (16108): wind speed: 16.08.2019 20:00:00 - 22.08.2019 20:00:00 (CEST)Ronchi Dei Legionari, Italy (16108): wind direction: 16.08.2019 20:00:00 - 22.08.2019 20:00:00 (CEST)Ronchi Dei Legionari, Italy (16108): reduced air pressure: 16.08.2019 20:00:00 - 22.08.2019 20:00:00 (CEST)Ronchi Dei Legionari, Italy (16108): visibility: 16.08.2019 20:00:00 - 22.08.2019 20:00:00 (CEST)Ronchi Dei Legionari, Italy (16108): precipitation: 16.08.2019 20:00:00 - 22.08.2019 20:00:00 (CEST)
Date & Time tt [°C] td [°C] ff [km/h] ff [kn] dd ppp [hPa] vv [km] rr [mm]
22.08.2019 20:00:00 26,2 15,3 9 5 E 1019,5 10 -
22.08.2019 19:00:00 27,0 15,0 15 8 E - 10 -
22.08.2019 18:00:00 28,0 15,0 9 5 NE - 10 -
22.08.2019 17:00:00 27,9 15,4 9 5 NE 1019,8 10 0,0
22.08.2019 16:00:00 27,0 15,0 9 5 ENE - 10 -
22.08.2019 15:00:00 27,0 15,0 5 3 NE - 10 -
22.08.2019 14:00:00 26,5 14,5 8 4 E 1020,6 10 -
22.08.2019 13:00:00 27,0 14,0 13 7 E - 10 -
22.08.2019 12:00:00 25,0 14,0 9 5 NNE - 10 -
22.08.2019 11:00:00 24,8 14,1 5 3 NE 1021,4 10 0,0
22.08.2019 10:00:00 23,0 15,0 8 4 N - 10 -
22.08.2019 09:00:00 23,0 14,0 9 5 N - 10 -
22.08.2019 08:00:00 23,1 12,4 5 3 ENE 1021,5 10 -
22.08.2019 07:00:00 21,0 15,0 13 7 N - 10 -
22.08.2019 06:00:00 21,0 16,0 4 2 - - 10 -
22.08.2019 05:00:00 21,5 16,1 13 7 ENE 1020,3 10 0,0
22.08.2019 04:00:00 24,0 14,0 18 10 ENE - 10 -
22.08.2019 03:00:00 23,0 15,0 15 8 ENE - 10 -
22.08.2019 02:00:00 24,5 14,3 24 13 E 1020,1 10 -
22.08.2019 01:00:00 - - - - - - - -
22.08.2019 00:00:00 23,0 16,0 8 4 W - 10 -
21.08.2019 23:00:00 23,8 15,6 5 3 N 1020,4 10 0,0
21.08.2019 22:00:00 26,0 15,0 21 11 ENE - 10 -
21.08.2019 21:00:00 26,0 15,0 18 10 E - 10 -
21.08.2019 20:00:00 26,9 15,4 21 11 E 1019,5 10 -
21.08.2019 19:00:00 28,0 16,0 29 16 E - 10 -
21.08.2019 18:00:00 29,0 17,0 31 17 E - 10 -
21.08.2019 17:00:00 29,8 17,3 28 15 E 1017,9 10 0,0
21.08.2019 16:00:00 32,0 18,0 34 18 E - 10 -
21.08.2019 15:00:00 33,0 19,0 28 15 E - 10 -
21.08.2019 14:00:00 32,6 19,2 28 15 E 1017,7 10 -
21.08.2019 13:00:00 32,0 19,0 24 13 E - 10 -
21.08.2019 12:00:00 32,0 20,0 22 12 E - 10 -
21.08.2019 11:00:00 27,3 21,1 8 4 NW 1018,1 10 0,0
21.08.2019 10:00:00 26,0 21,0 8 4 N - 10 -
21.08.2019 09:00:00 25,0 20,0 5 3 NNE - 10 -
21.08.2019 08:00:00 23,1 19,1 5 3 NNW 1017,3 10 -
21.08.2019 07:00:00 21,0 18,0 4 2 - - 10 -
21.08.2019 06:00:00 21,0 18,0 5 3 NNE - 10 -
21.08.2019 05:00:00 19,0 17,0 4 2 NNE - 10 -
21.08.2019 04:00:00 19,0 17,0 5 3 NNE - 10 -
21.08.2019 03:00:00 19,0 17,0 5 3 N - 10 -
21.08.2019 02:00:00 20,0 17,0 4 2 NNE - 10 -
21.08.2019 01:00:00 20,0 18,0 4 2 NNE - 10 -
21.08.2019 00:00:00 22,0 18,0 2 1 - - 10 -
20.08.2019 23:00:00 21,3 18,4 4 2 N 1017,0 10 0,0
20.08.2019 22:00:00 23,0 19,0 2 1 - - 10 -
20.08.2019 21:00:00 26,0 18,0 4 2 - - 10 -
20.08.2019 20:00:00 30,0 16,0 4 2 - - 10 -
20.08.2019 19:00:00 31,0 15,0 8 4 SSE - 10 -
20.08.2019 18:00:00 32,0 17,0 9 5 S - 10 -
20.08.2019 17:00:00 32,5 15,0 11 6 SSW 1016,5 10 0,0
20.08.2019 16:00:00 33,0 13,0 11 6 S - 10 -
20.08.2019 15:00:00 33,0 13,0 11 6 SSE - 10 -
20.08.2019 14:00:00 33,0 15,0 11 6 SSW - 10 -
20.08.2019 13:00:00 33,0 17,0 9 5 S - 10 -
20.08.2019 12:00:00 32,0 17,0 4 2 - - 10 -
20.08.2019 11:00:00 30,9 18,2 8 4 N 1017,3 10 0,0
20.08.2019 10:00:00 28,0 18,0 11 6 N - 10 -
20.08.2019 09:00:00 25,0 19,0 9 5 NNE - 10 -
20.08.2019 08:00:00 22,7 19,4 4 2 - 1017,2 10 -
20.08.2019 07:00:00 20,0 18,0 5 3 NNE - 10 -
20.08.2019 06:00:00 20,0 18,0 4 2 N - 10 -
20.08.2019 05:00:00 20,3 17,8 2 1 - 1017,2 10 0,0
20.08.2019 04:00:00 20,0 18,0 2 1 NE - 10 -
20.08.2019 03:00:00 20,0 19,0 4 2 N - 10 -
20.08.2019 02:00:00 20,0 19,0 5 3 N - 10 -
20.08.2019 01:00:00 21,0 18,0 8 4 E - 10 -
20.08.2019 00:00:00 22,0 19,0 4 2 E - 10 -
19.08.2019 23:00:00 23,6 18,8 9 5 E 1017,3 10 0,0
19.08.2019 22:00:00 25,0 22,0 5 3 SSE - 10 -
19.08.2019 21:00:00 25,0 20,0 4 2 ENE - 10 -
19.08.2019 20:00:00 27,7 19,6 5 3 SW 1016,1 10 -
19.08.2019 19:00:00 29,0 19,0 8 4 SW - 10 -
19.08.2019 18:00:00 30,0 18,0 13 7 SSW - 10 -
19.08.2019 17:00:00 32,0 17,0 9 5 SSW - 10 -
19.08.2019 16:00:00 31,0 18,0 9 5 SSW - 10 -
19.08.2019 15:00:00 31,0 17,0 8 4 - - 10 -
19.08.2019 14:00:00 30,8 16,3 9 5 SSW 1016,4 10 -
19.08.2019 13:00:00 30,0 16,0 8 4 S - 10 -
19.08.2019 12:00:00 29,0 15,0 9 5 S - 10 -
19.08.2019 11:00:00 29,0 16,0 4 2 - - 10 -
19.08.2019 10:00:00 27,0 17,0 2 1 - - 10 -
19.08.2019 09:00:00 23,0 17,0 4 2 - - 10 -
19.08.2019 08:00:00 20,5 17,2 4 2 - 1015,8 10 -
19.08.2019 07:00:00 17,0 16,0 5 3 NNW - 10 -
19.08.2019 06:00:00 18,0 15,0 8 4 E - 10 -
19.08.2019 05:00:00 16,7 16,1 4 2 - 1015,6 10 0,0
19.08.2019 04:00:00 18,0 17,0 4 2 NE - 10 -
19.08.2019 03:00:00 18,0 17,0 4 2 NE - 10 -
19.08.2019 02:00:00 18,2 16,8 5 3 E 1015,9 10 -
19.08.2019 01:00:00 19,0 17,0 8 4 E - 10 -
19.08.2019 00:00:00 20,0 18,0 5 3 ENE - 10 -
18.08.2019 23:00:00 20,7 18,0 5 3 ENE 1015,6 10 0,0
18.08.2019 22:00:00 21,0 19,0 2 1 N - 10 -
18.08.2019 21:00:00 24,0 19,0 4 2 SSW - 10 -
18.08.2019 20:00:00 26,3 18,1 5 3 SSW 1014,9 10 -
18.08.2019 19:00:00 29,0 18,0 9 5 WSW - 10 -
18.08.2019 18:00:00 29,0 17,0 9 5 SSW - 10 -
18.08.2019 17:00:00 29,0 17,4 13 7 SSW 1015,5 10 0,0
18.08.2019 16:00:00 29,0 17,0 11 6 W - 10 -
18.08.2019 15:00:00 29,0 16,0 13 7 WSW - 10 -
18.08.2019 14:00:00 29,1 17,6 13 7 W 1016,0 10 -
18.08.2019 13:00:00 29,0 18,0 9 5 SW - 10 -
18.08.2019 12:00:00 29,0 18,0 5 3 ESE - 10 -
18.08.2019 11:00:00 27,2 17,4 5 3 - 1016,2 10 0,0
18.08.2019 10:00:00 26,0 16,0 4 2 - - 10 -
18.08.2019 09:00:00 23,0 16,0 4 2 - - 10 -
18.08.2019 08:00:00 20,2 14,9 4 2 - 1016,0 10 -
18.08.2019 07:00:00 16,0 15,0 5 3 NNE - 10 -
18.08.2019 06:00:00 16,0 15,0 4 2 - - 10 -
18.08.2019 05:00:00 17,2 13,9 5 3 E 1015,8 10 0,0
18.08.2019 04:00:00 17,0 15,0 5 3 ENE - 10 -
18.08.2019 03:00:00 18,0 14,0 8 4 E - 10 -
18.08.2019 02:00:00 17,5 15,2 8 4 E 1016,3 10 -
18.08.2019 01:00:00 18,0 16,0 2 1 - - 10 -
18.08.2019 00:00:00 20,0 16,0 9 5 E - 10 -
17.08.2019 23:00:00 21,2 15,7 5 3 E 1015,8 10 0,0
17.08.2019 22:00:00 23,0 17,0 4 2 ESE - 10 -
17.08.2019 21:00:00 24,0 16,0 4 2 SSE - 10 -
17.08.2019 20:00:00 25,0 15,4 5 3 SW 1015,5 10 -
17.08.2019 19:00:00 27,0 15,0 9 5 SW - 10 -
17.08.2019 18:00:00 27,0 14,0 9 5 SW - 10 -
17.08.2019 17:00:00 28,2 12,8 13 7 SW 1016,2 10 0,0
17.08.2019 16:00:00 28,0 12,0 13 7 WSW - 10 -
17.08.2019 15:00:00 29,0 13,0 15 8 SW - 10 -
17.08.2019 14:00:00 28,6 13,0 9 5 - 1016,5 10 -
17.08.2019 13:00:00 28,0 13,0 4 2 - - 10 -
17.08.2019 12:00:00 27,0 14,0 8 4 - - 10 -
17.08.2019 11:00:00 26,2 13,1 5 3 NNW 1017,1 10 0,0
17.08.2019 10:00:00 24,0 14,0 4 2 - - 10 -
17.08.2019 09:00:00 22,0 14,0 4 2 - - 10 -
17.08.2019 08:00:00 20,2 14,2 4 2 - 1016,9 10 -
17.08.2019 07:00:00 16,0 14,0 8 4 N - 10 -
17.08.2019 06:00:00 16,0 14,0 8 4 NNE - 10 -
17.08.2019 05:00:00 15,6 13,3 5 3 NE 1016,5 10 0,0
17.08.2019 04:00:00 16,0 14,0 5 3 NNE - 10 -
17.08.2019 03:00:00 16,0 14,0 4 2 - - 10 -
17.08.2019 02:00:00 16,9 14,1 5 3 N 1017,1 10 -
17.08.2019 01:00:00 18,0 15,0 2 1 - - 10 -
17.08.2019 00:00:00 19,0 14,0 8 4 NNE - 10 -
16.08.2019 23:00:00 19,2 14,5 4 2 - 1017,1 10 0,0
16.08.2019 22:00:00 20,0 16,0 2 1 - - 10 -
16.08.2019 21:00:00 21,0 16,0 5 3 N - 10 -
16.08.2019 20:00:00 23,3 15,6 5 3 NE 1015,8 10 -

tt = temperature
td = dewpoint
ff = wind speed
dd = wind direction
ppp = reduced air pressure
vv = visibility
rr = precipitation

Next stations